Weather History for Dalhart, TX

Change the Weather History Date:

Thursday, February 27, 2014

  Actual Average Record
Temperature  
Mean Temperature 45 °F 41 °F  
Max Temperature 71 °F 56 °F 79 °F (2006)
Min Temperature 18 °F 25 °F 4 °F (1962)
Degree Days  
Heating Degree Days 20 24  
Month to date heating degree days 740 736  
Since 1 July heating degree days 3587 3618  
Cooling Degree Days 0 0  
Month to date cooling degree days 0 0  
Year to date cooling degree days 0 0  
Moisture  
Dew Point 23 °F    
Average Humidity 46    
Maximum Humidity 77    
Minimum Humidity 14    
Precipitation  
Precipitation 0.00 in 0.01 in 1.22 in (1966)
Month to date precipitation 0.08 0.38  
Year to date precipitation 0.09 0.90  
Snow  
Snow 0.00 in 0.10 in 5.00 in (1966)
Month to date snowfall 2.8 2.9  
Since 1 July snowfall 15.3 13.4  
Snow Depth 0.00 in    
Sea Level Pressure  
Sea Level Pressure 29.76 in    
Wind  
Wind Speed 12 mph (WSW)    
Max Wind Speed 43 mph    
Max Gust Speed 51 mph    
Visibility 8 miles    
Events      
T = Trace of Precipitation, MM = Missing Value Source: NWS Daily Summary

Daily Weather History Graph

Daily Weather History Graph

Search for Another Location

Airport:

Trip Planner

Search our weather history database for the weather conditions in past years. The results will help you decide how hot, cold, wet, or windy it might be!

Date:

Astronomy

Feb. 27, 2014 Rise Set
Actual Time 7:22 AM CST 6:43 PM CST
Civil Twilight 6:57 AM CST 7:09 PM CST
Nautical Twilight 6:27 AM CST 7:38 PM CST
Astronomical Twilight 5:57 AM CST 8:08 PM CST
Moon 5:54 AM CST (2/27) 5:13 PM CST (2/27)
Length of Visible Light 12h 12m
Length of Day
11h 20m
Waning Crescent, 4% of the Moon is Illuminated
Feb 27
Waning Crescent
Mar 1
New
Mar 8
First Quarter
Mar 16
Full
Mar 23
Last Quarter

Hourly Weather History & Observations

Time (CST) Temp. Windchill Dew Point Humidity Pressure Visibility Wind Dir Wind Speed Gust Speed Precip Events Conditions
12:53 AM 27.0 °F 20.5 °F 16.0 °F 63% 30.06 in 10.0 mi WNW 5.8 mph - N/A   Clear
1:53 AM 26.1 °F 19.4 °F 16.0 °F 66% 30.06 in 10.0 mi NW 5.8 mph - N/A   Clear
2:53 AM 25.0 °F 17.1 °F 16.0 °F 69% 30.03 in 10.0 mi WNW 6.9 mph - N/A   Clear
3:53 AM 23.0 °F 18.4 °F 15.1 °F 72% 30.00 in 10.0 mi WSW 3.5 mph - N/A   Clear
4:53 AM 23.0 °F 18.4 °F 16.0 °F 74% 29.96 in 10.0 mi West 3.5 mph - N/A   Clear
5:53 AM 19.9 °F 13.4 °F 14.0 °F 78% 29.98 in 10.0 mi WSW 4.6 mph - N/A   Clear
6:53 AM 21.0 °F 16.2 °F 14.0 °F 74% 29.98 in 10.0 mi SW 3.5 mph - N/A   Clear
7:53 AM 19.0 °F 12.3 °F 14.0 °F 81% 30.01 in 10.0 mi SW 4.6 mph - N/A   Clear
8:53 AM 30.0 °F 21.7 °F 19.0 °F 64% 29.97 in 10.0 mi South 9.2 mph - N/A   Clear
9:53 AM 41.0 °F 32.8 °F 21.0 °F 45% 29.91 in 10.0 mi South 16.1 mph - N/A   Clear
10:53 AM 46.0 °F 38.8 °F 21.9 °F 39% 29.86 in 10.0 mi South 18.4 mph - N/A   Clear
11:53 AM 50.0 °F - 21.9 °F 33% 29.83 in 10.0 mi SSW 17.3 mph 28.8 mph N/A   Clear
12:53 PM 54.0 °F - 21.9 °F 29% 29.76 in 10.0 mi SSW 17.3 mph - N/A   Clear
1:53 PM 62.1 °F - 21.0 °F 21% 29.69 in 10.0 mi SW 17.3 mph - N/A   Clear
2:53 PM 64.9 °F - 21.0 °F 19% 29.65 in 10.0 mi SSW 17.3 mph - N/A   Clear
3:53 PM 68.0 °F - 19.0 °F 15% 29.61 in 10.0 mi SSW 13.8 mph - N/A   Clear
4:53 PM 71.1 °F - 19.0 °F 14% 29.56 in 10.0 mi WSW 18.4 mph 25.3 mph N/A   Clear
5:53 PM 69.1 °F - 21.0 °F 16% 29.55 in 10.0 mi SW 12.7 mph - N/A   Clear
6:53 PM 63.0 °F - 21.9 °F 21% 29.55 in 10.0 mi SSW 10.4 mph - N/A   Clear
7:53 PM 50.0 °F - 23.0 °F 35% 29.58 in 10.0 mi SW 6.9 mph - N/A   Clear
8:53 PM 54.0 °F - 24.1 °F 31% 29.55 in 10.0 mi SW 12.7 mph - N/A   Clear
9:48 PM 62.6 °F - 30.2 °F 30% 29.60 in 2.5 mi West 33.4 mph 40.3 mph N/A   Haze
9:53 PM 63.0 °F - 30.0 °F 29% 29.53 in 2.0 mi West 28.8 mph 40.3 mph N/A   Haze
10:03 PM 63.0 °F - 30.9 °F 30% 29.62 in 4.0 mi West 26.5 mph 47.2 mph N/A   Haze
10:40 PM 57.0 °F - 36.0 °F 45% 29.62 in 1.5 mi West 36.8 mph 51.8 mph N/A   Haze
10:53 PM 55.0 °F - 37.0 °F 51% 29.54 in 2.0 mi West 27.6 mph 42.6 mph N/A   Haze
11:02 PM 55.9 °F - 37.0 °F 49% 29.62 in 5.0 mi West 26.5 mph 33.4 mph N/A   Haze
11:53 PM 55.0 °F - 35.1 °F 47% 29.49 in 10.0 mi WSW 16.1 mph - N/A   Overcast